Time,TemperatureF,DewpointF,PressureIn,WindDirection,WindDirectionDegrees,WindSpeedMPH,WindSpeedGustMPH,Humidity,HourlyPrecipIn,Conditions,Clouds,dailyrainin,SolarRadiationWatts/m^2,SoftwareType,DateUTC
2013-03-29 00:09:00,41.3,31.0,29.60,WNW,294,0.0,0.0,67,0.00,,,0.00,0,weatherlink.com 1.10,2013-03-29 04:09:00,
2013-03-29 00:24:00,41.5,31.0,29.61,NW,311,2.0,2.0,66,0.00,,,0.00,0,weatherlink.com 1.10,2013-03-29 04:24:00,
2013-03-29 00:39:00,41.3,31.0,29.60,NW,311,0.0,2.0,66,0.00,,,0.00,0,weatherlink.com 1.10,2013-03-29 04:39:00,
2013-03-29 00:54:00,41.0,31.0,29.61,NW,311,0.0,2.0,67,0.00,,,0.00,0,weatherlink.com 1.10,2013-03-29 04:54:00,
2013-03-29 01:09:00,40.7,30.0,29.61,NW,311,0.0,0.0,67,0.00,,,0.00,0,weatherlink.com 1.10,2013-03-29 05:09:00,
2013-03-29 01:24:00,40.8,31.0,29.61,NW,319,0.0,2.0,67,0.00,,,0.00,0,weatherlink.com 1.10,2013-03-29 05:24:00,
2013-03-29 01:39:00,41.1,30.0,29.61,NW,305,0.0,3.0,66,0.00,,,0.00,0,weatherlink.com 1.10,2013-03-29 05:39:00,
2013-03-29 01:54:00,41.0,31.0,29.61,NW,315,1.0,4.0,67,0.00,,,0.00,0,weatherlink.com 1.10,2013-03-29 05:54:00,
2013-03-29 02:09:00,40.8,31.0,29.61,NW,313,0.0,0.0,67,0.00,,,0.00,0,weatherlink.com 1.10,2013-03-29 06:09:00,
2013-03-29 02:24:00,40.4,31.0,29.61,NW,313,1.0,1.0,68,0.00,,,0.00,0,weatherlink.com 1.10,2013-03-29 06:24:00,
2013-03-29 02:39:00,40.1,30.0,29.61,WNW,296,0.0,1.0,67,0.00,,,0.00,0,weatherlink.com 1.10,2013-03-29 06:39:00,
2013-03-29 02:54:00,39.4,30.0,29.61,WNW,296,0.0,1.0,68,0.00,,,0.00,0,weatherlink.com 1.10,2013-03-29 06:54:00,
2013-03-29 03:09:00,39.1,30.0,29.61,NW,319,0.0,2.0,69,0.00,,,0.00,0,weatherlink.com 1.10,2013-03-29 07:09:00,
2013-03-29 03:24:00,38.6,29.0,29.61,NW,319,0.0,0.0,69,0.00,,,0.00,0,weatherlink.com 1.10,2013-03-29 07:24:00,
2013-03-29 03:39:00,38.5,29.0,29.61,NW,319,0.0,0.0,69,0.00,,,0.00,0,weatherlink.com 1.10,2013-03-29 07:39:00,
2013-03-29 03:54:00,38.2,29.0,29.61,NW,319,0.0,0.0,70,0.00,,,0.00,0,weatherlink.com 1.10,2013-03-29 07:54:00,
2013-03-29 04:09:00,38.2,29.0,29.60,NW,319,0.0,0.0,70,0.00,,,0.00,0,weatherlink.com 1.10,2013-03-29 08:09:00,
2013-03-29 04:24:00,38.3,29.0,29.61,WNW,299,0.0,2.0,69,0.00,,,0.00,0,weatherlink.com 1.10,2013-03-29 08:24:00,
2013-03-29 04:39:00,38.2,29.0,29.61,NW,305,0.0,3.0,69,0.00,,,0.00,0,weatherlink.com 1.10,2013-03-29 08:39:00,
2013-03-29 04:54:00,38.2,29.0,29.61,NW,306,2.0,3.0,69,0.00,,,0.00,0,weatherlink.com 1.10,2013-03-29 08:54:00,
2013-03-29 05:09:00,38.2,28.0,29.61,NW,306,2.0,3.0,68,0.00,,,0.00,0,weatherlink.com 1.10,2013-03-29 09:09:00,
2013-03-29 05:24:00,38.1,29.0,29.61,NW,304,2.0,3.0,69,0.00,,,0.00,0,weatherlink.com 1.10,2013-03-29 09:24:00,
2013-03-29 05:39:00,38.1,28.0,29.61,WNW,290,0.0,3.0,68,0.00,,,0.00,0,weatherlink.com 1.10,2013-03-29 09:39:00,
2013-03-29 05:54:00,38.0,28.0,29.61,WNW,302,0.0,5.0,68,0.00,,,0.00,0,weatherlink.com 1.10,2013-03-29 09:54:00,
2013-03-29 06:09:00,37.8,28.0,29.61,NW,309,1.0,3.0,69,0.00,,,0.00,0,weatherlink.com 1.10,2013-03-29 10:09:00,
2013-03-29 06:24:00,37.5,28.0,29.61,WNW,297,0.0,4.0,69,0.00,,,0.00,0,weatherlink.com 1.10,2013-03-29 10:24:00,
2013-03-29 06:39:00,37.1,28.0,29.61,WNW,298,1.0,4.0,70,0.00,,,0.00,0,weatherlink.com 1.10,2013-03-29 10:39:00,
2013-03-29 06:54:00,37.1,28.0,29.61,WNW,303,0.0,3.0,70,0.00,,,0.00,12,weatherlink.com 1.10,2013-03-29 10:54:00,
2013-03-29 07:10:00,37.4,28.0,29.61,WNW,293,1.0,2.0,70,0.00,,,0.00,21,weatherlink.com 1.10,2013-03-29 11:10:00,
2013-03-29 07:25:00,38.0,29.0,29.62,NW,310,0.0,3.0,70,0.00,,,0.00,35,weatherlink.com 1.10,2013-03-29 11:25:00,
2013-03-29 07:40:00,38.8,29.0,29.62,NW,320,0.0,4.0,68,0.00,,,0.00,56,weatherlink.com 1.10,2013-03-29 11:40:00,
2013-03-29 07:55:00,39.5,29.0,29.63,WNW,295,1.0,3.0,67,0.00,,,0.00,113,weatherlink.com 1.10,2013-03-29 11:55:00,
2013-03-29 08:10:00,40.7,30.0,29.63,WNW,295,2.0,3.0,66,0.00,,,0.00,209,weatherlink.com 1.10,2013-03-29 12:10:00,
2013-03-29 08:25:00,42.0,31.0,29.63,NNW,329,2.0,6.0,64,0.00,,,0.00,264,weatherlink.com 1.10,2013-03-29 12:25:00,
2013-03-29 08:40:00,43.2,31.0,29.63,North,355,2.0,5.0,62,0.00,,,0.00,311,weatherlink.com 1.10,2013-03-29 12:40:00,
2013-03-29 08:55:00,44.2,31.0,29.63,North,355,0.0,4.0,61,0.00,,,0.00,360,weatherlink.com 1.10,2013-03-29 12:55:00,
2013-03-29 09:10:00,45.7,31.0,29.63,NW,313,0.0,6.0,58,0.00,,,0.00,410,weatherlink.com 1.10,2013-03-29 13:10:00,
2013-03-29 09:25:00,46.3,32.0,29.63,WNW,300,0.0,4.0,57,0.00,,,0.00,454,weatherlink.com 1.10,2013-03-29 13:25:00,
2013-03-29 09:40:00,47.0,32.0,29.63,WNW,286,4.0,5.0,56,0.00,,,0.00,499,weatherlink.com 1.10,2013-03-29 13:40:00,
2013-03-29 09:55:00,47.7,31.0,29.63,NNW,336,4.0,5.0,52,0.00,,,0.00,543,weatherlink.com 1.10,2013-03-29 13:55:00,
2013-03-29 10:10:00,49.7,31.0,29.63,NW,319,0.0,4.0,49,0.00,,,0.00,582,weatherlink.com 1.10,2013-03-29 14:10:00,
2013-03-29 10:25:00,51.7,32.0,29.63,SSW,195,0.0,4.0,47,0.00,,,0.00,622,weatherlink.com 1.10,2013-03-29 14:25:00,
2013-03-29 10:40:00,50.8,31.0,29.62,NNW,347,1.0,3.0,47,0.00,,,0.00,656,weatherlink.com 1.10,2013-03-29 14:40:00,
2013-03-29 10:55:00,51.9,31.0,29.63,NNW,339,2.0,3.0,45,0.00,,,0.00,687,weatherlink.com 1.10,2013-03-29 14:55:00,
2013-03-29 11:10:00,52.6,32.0,29.63,NW,309,1.0,4.0,45,0.00,,,0.00,700,weatherlink.com 1.10,2013-03-29 15:10:00,
2013-03-29 11:26:00,52.6,30.0,29.62,NNW,341,0.0,5.0,42,0.00,,,0.00,747,weatherlink.com 1.10,2013-03-29 15:26:00,
2013-03-29 11:41:00,52.1,30.0,29.62,SW,225,0.0,3.0,43,0.00,,,0.00,624,weatherlink.com 1.10,2013-03-29 15:41:00,
2013-03-29 11:56:00,53.9,32.0,29.61,NE,55,0.0,3.0,43,0.00,,,0.00,680,weatherlink.com 1.10,2013-03-29 15:56:00,
2013-03-29 12:11:00,53.3,30.0,29.61,NNE,23,0.0,6.0,41,0.00,,,0.00,561,weatherlink.com 1.10,2013-03-29 16:11:00,
2013-03-29 12:26:00,53.6,30.0,29.60,West,281,1.0,6.0,40,0.00,,,0.00,807,weatherlink.com 1.10,2013-03-29 16:26:00,
2013-03-29 12:41:00,54.4,30.0,29.60,WNW,292,2.0,5.0,39,0.00,,,0.00,687,weatherlink.com 1.10,2013-03-29 16:41:00,
2013-03-29 12:56:00,53.0,28.0,29.60,North,355,2.0,6.0,39,0.00,,,0.00,265,weatherlink.com 1.10,2013-03-29 16:56:00,
2013-03-29 13:11:00,53.6,29.0,29.59,SSW,201,0.0,6.0,39,0.00,,,0.00,1069,weatherlink.com 1.10,2013-03-29 17:11:00,
2013-03-29 13:26:00,51.9,27.0,29.59,WNW,286,0.0,5.0,39,0.00,,,0.00,190,weatherlink.com 1.10,2013-03-29 17:26:00,
2013-03-29 13:56:00,52.4,29.0,29.58,NNW,331,2.0,4.0,40,0.00,,,0.00,227,weatherlink.com 1.10,2013-03-29 17:56:00,
2013-03-29 14:26:00,52.0,28.0,29.57,NNW,336,1.0,7.0,39,0.00,,,0.00,260,weatherlink.com 1.10,2013-03-29 18:26:00,
2013-03-29 14:56:00,52.4,27.0,29.56,NNE,15,2.0,4.0,38,0.00,,,0.00,257,weatherlink.com 1.10,2013-03-29 18:56:00,
2013-03-29 15:11:00,51.7,28.0,29.56,WNW,296,0.0,7.0,40,0.00,,,0.00,306,weatherlink.com 1.10,2013-03-29 19:11:00,
2013-03-29 16:11:00,50.5,28.0,29.55,NNE,13,0.0,5.0,42,0.00,,,0.00,185,weatherlink.com 1.10,2013-03-29 20:11:00,
2013-03-29 16:56:00,50.2,28.0,29.56,North,355,1.0,9.0,42,0.00,,,0.00,128,weatherlink.com 1.10,2013-03-29 20:56:00,
2013-03-29 17:26:00,48.4,29.0,29.57,West,273,4.0,5.0,47,0.00,,,0.00,77,weatherlink.com 1.10,2013-03-29 21:26:00,
2013-03-29 17:41:00,47.9,28.0,29.57,ENE,58,0.0,5.0,47,0.00,,,0.00,83,weatherlink.com 1.10,2013-03-29 21:41:00,
2013-03-29 17:56:00,48.0,28.0,29.57,WNW,291,0.0,4.0,47,0.00,,,0.00,74,weatherlink.com 1.10,2013-03-29 21:56:00,
2013-03-29 18:11:00,47.8,29.0,29.58,NNW,329,1.0,8.0,48,0.00,,,0.00,54,weatherlink.com 1.10,2013-03-29 22:11:00,
2013-03-29 18:26:00,47.5,30.0,29.58,NNW,336,1.0,3.0,50,0.00,,,0.00,39,weatherlink.com 1.10,2013-03-29 22:26:00,
2013-03-29 18:56:00,46.6,29.0,29.58,NNW,336,0.0,5.0,51,0.00,,,0.00,11,weatherlink.com 1.10,2013-03-29 22:56:00,
2013-03-29 19:11:00,45.8,29.0,29.59,NW,321,0.0,5.0,52,0.00,,,0.00,5,weatherlink.com 1.10,2013-03-29 23:11:00,
2013-03-29 19:26:00,45.0,28.0,29.59,WNW,290,0.0,5.0,51,0.00,,,0.00,0,weatherlink.com 1.10,2013-03-29 23:26:00,
2013-03-29 19:41:00,44.4,28.0,29.59,WNW,303,0.0,5.0,52,0.00,,,0.00,0,weatherlink.com 1.10,2013-03-29 23:41:00,
2013-03-29 19:56:00,44.0,28.0,29.59,NW,309,0.0,3.0,53,0.00,,,0.00,0,weatherlink.com 1.10,2013-03-29 23:56:00,
2013-03-29 20:11:00,43.7,28.0,29.60,WNW,292,1.0,3.0,54,0.00,,,0.00,0,weatherlink.com 1.10,2013-03-30 00:11:00,
2013-03-29 20:41:00,43.6,28.0,29.60,WNW,299,3.0,4.0,55,0.00,,,0.00,0,weatherlink.com 1.10,2013-03-30 00:41:00,
2013-03-29 20:56:00,43.3,29.0,29.61,NW,314,0.0,2.0,57,0.00,,,0.00,0,weatherlink.com 1.10,2013-03-30 00:56:00,
2013-03-29 21:11:00,43.1,29.0,29.61,WNW,282,0.0,3.0,57,0.00,,,0.00,0,weatherlink.com 1.10,2013-03-30 01:11:00,
2013-03-29 21:26:00,42.6,29.0,29.61,WNW,284,0.0,3.0,58,0.00,,,0.00,0,weatherlink.com 1.10,2013-03-30 01:26:00,
2013-03-29 21:42:00,42.4,29.0,29.61,WNW,288,0.0,4.0,59,0.00,,,0.00,0,weatherlink.com 1.10,2013-03-30 01:42:00,
2013-03-29 21:57:00,41.8,29.0,29.62,WNW,286,0.0,2.0,61,0.00,,,0.00,0,weatherlink.com 1.10,2013-03-30 01:57:00,
2013-03-29 22:12:00,41.6,29.0,29.62,WNW,286,0.0,2.0,61,0.00,,,0.00,0,weatherlink.com 1.10,2013-03-30 02:12:00,
2013-03-29 22:27:00,41.6,29.0,29.62,WNW,299,0.0,4.0,61,0.00,,,0.00,0,weatherlink.com 1.10,2013-03-30 02:27:00,
2013-03-29 22:45:00,41.5,29.0,29.62,WNW,288,0.0,4.0,61,0.00,,,0.00,0,weatherlink.com 1.10,2013-03-30 02:45:00,
2013-03-29 22:57:00,41.5,29.0,29.62,WNW,291,0.0,3.0,61,0.00,,,0.00,0,weatherlink.com 1.10,2013-03-30 02:57:00,
2013-03-29 23:12:00,41.3,29.0,29.62,NW,306,0.0,2.0,61,0.00,,,0.00,0,weatherlink.com 1.10,2013-03-30 03:12:00,
2013-03-29 23:27:00,41.4,29.0,29.62,WNW,288,1.0,5.0,61,0.00,,,0.00,0,weatherlink.com 1.10,2013-03-30 03:27:00,
2013-03-29 23:42:00,41.2,29.0,29.62,WNW,289,0.0,3.0,61,0.00,,,0.00,0,weatherlink.com 1.10,2013-03-30 03:42:00,
2013-03-29 23:57:00,40.7,28.0,29.62,WNW,291,0.0,4.0,62,0.00,,,0.00,0,weatherlink.com 1.10,2013-03-30 03:57:00,